Header for Extended Forecast Station List Page

Search by: ID | Name | Date | Parm | Value | Avg | % Avg
Sort by: ID | Name | Date | Parm | Value | Avg | % Avg

Enter search or view all records.

Click on id for station plot
#IDNameDateParmValueAvg% Avg
0LYDM8KOOTENAI-LIBBY DAM09-16-2019INFLOW (KAF)11541063109
1LEOI1KOOTENAI-AT LEONIA09-16-2019DISCHARGE (KAF)22051752126
2BFEI1KOOTENAI-AT BONNERS FERRY09-16-2019STAGE (FT)MMM
3FCFM8NF FLATHEAD-NEAR COLUMBIA FALLS09-16-2019DISCHARGE (KAF)16421377
4WGCM8MF FLATHEAD-NEAR WEST GLACIER09-16-2019DISCHARGE (KAF)12918371
5HHWM8SF FLATHEAD-HUNGRY HORSE DAM09-16-2019INFLOW (KAF)18924179
6CFMM8FLATHEAD-AT COLUMBIA FALLS09-16-2019DISCHARGE (KAF)888123372
7DLGM8CLARK FORK-AT DEER LODGE09-16-2019DISCHARGE (KAF)6862109
8DRMM8CLARK FORK-NR DRUMMOND09-16-2019DISCHARGE (KAF)162MM
9RCCM8ROCK CREEK-NEAR CLINTON09-16-2019DISCHARGE (KAF)6654123
10BONM8BLACKFOOT-NEAR BONNER09-16-2019DISCHARGE (KAF)13114491
11ABOM8CLARK FORK-ABOVE MISSOULA09-16-2019DISCHARGE (KAF)374362103
12BITM8BITTERROOT-NEAR MISSOULA09-16-2019DISCHARGE (KAF)19123581
13BELM8CLARK FORK-BELOW MISSOULA09-16-2019DISCHARGE (KAF)56560494
14STRM8ST. REGIS-NEAR ST. REGIS09-16-2019DISCHARGE (KAF)203461
15SRGM8CLARK FORK-AT ST REGIS09-16-2019DISCHARGE (KAF)71377992
16KERM8FLATHEAD-KERR DAM09-16-2019INFLOW (KAF)1012149768
17NOXM8CLARK FORK-NOXON RAPIDS DAM09-16-2019INFLOW (KAF)2575330778
18CABI1CLARK FORK-CABINET GORGE DAM09-16-2019INFLOW (KAF)2822343282
19PRTI1PRIEST-NEAR PRIEST RIVER09-16-2019DISCHARGE (KAF)20721696
20ALFW1PEND OREILLE-ALBENI FALLS DAM09-16-2019INFLOW (KAF)3016394077
21HOPI1PEND OREILLE-PEND OREILLE LAKE NR HOPE09-16-2019LAKE ELEVATION (FT)MMM
22COEI1COEUR D ALENE-COEUR D ALENE LAKE09-16-2019INFLOW (KAF)25344557
23SPOW1SPOKANE-AT SPOKANE09-16-2019DISCHARGE (KAF)435MM
24LLKW1SPOKANE-AT LONGLAKE09-16-2019INFLOW (KAF)61189768
25SATI1ST MARIES-NEAR SANTA09-16-2019DISCHARGE (KAF)152366
26SJMI1ST JOE-AT ST MARIES09-16-2019STAGE (FT)MMM
27CIBW1COLUMBIA-AT INTL BOUNDARY09-16-2019DISCHARGE (KAF)16438MM
28LAUW1KETTLE-AT LAURIER09-16-2019DISCHARGE (KAF)135127106
29GCDW1COLUMBIA-GRAND COULEE DAM09-16-2019INFLOW (KAF)172031734899
30CHJW1COLUMBIA-CHIEF JOSEPH DAM09-16-2019INFLOW (KAF)175921980689
31TONW1OKANOGAN-NEAR TONASKET09-16-2019DISCHARGE (KAF)22527781
32PATW1METHOW-NEAR PATEROS09-16-2019DISCHARGE (KAF)9410193
33WELW1COLUMBIA-WELLS DAM09-16-2019INFLOW (KAF)179102011989
34CHDW1CHELAN-LAKE CHELAN DAM09-16-2019INFLOW (KAF)256158162
35RRHW1COLUMBIA-ROCKY REACH DAM09-16-2019INFLOW (KAF)182062060788
36ARDW1ENTIAT-NEAR ARDENVOIR09-16-2019DISCHARGE (KAF)192287
37PESW1WENATCHEE-AT PESHASTIN09-16-2019DISCHARGE (KAF)23726888
38WANW1COLUMBIA-WANAPUM DAM09-16-2019INFLOW (KAF)184541894697
39PRWW1COLUMBIA-PRIEST RAPIDS DAM09-16-2019INFLOW (KAF)184531924596
40KEDW1YAKIMA-KEECHELUS LAKE09-16-2019INFLOW (KAF)4545101
41KADW1KACHESS-KACHESS DAM09-16-2019INFLOW (KAF)323689
42EASW1YAKIMA-AT EASTON09-16-2019DISCHARGE (KAF)5858100
43CLUW1CLE ELUM-CLE ELUM LAKE09-16-2019INFLOW (KAF)859095
44TNAW1TEANAWAY-BELOW FORKS09-16-2019DISCHARGE (KAF)152658
45UMTW1YAKIMA-AT UMTANUM09-16-2019DISCHARGE (KAF)20627775
46BUDW1BUMPING-BUMPING LAKE DAM09-16-2019INFLOW (KAF)283093
47CLFW1NACHES-NEAR CLIFFDEL09-16-2019DISCHARGE (KAF)669173
48RILW1TIETON-RIMROCK LAKE NEAR RIMROCK09-16-2019INFLOW (KAF)6962113
49NACW1NACHES-NEAR NACHES09-16-2019DISCHARGE (KAF)16775222
50PARW1YAKIMA-NEAR PARKER09-16-2019DISCHARGE (KAF)32033496
51KIOW1YAKIMA-AT KIONA09-16-2019DISCHARGE (KAF)53859391
52IPDI1HENRYS FORK-ISLAND PARK DAM09-16-2019INFLOW (KAF)124124100
53CHEI1FALL RIVER-NEAR CHESTER09-16-2019DISCHARGE (KAF)116107109
54ANTI1HENRYS FORK-AT ST. ANTHONY09-16-2019DISCHARGE (KAF)370335110
55TEAI1TETON-NEAR ST. ANTHONY09-16-2019DISCHARGE (KAF)122121101
56REXI1HENRYS FORK-AT REXBURG09-16-2019DISCHARGE (KAF)473425111
57JLKW4SNAKE-JACKSON LAKE AT DAM09-16-2019INFLOW (KAF)128113114
58JKSW4SNAKE-NEAR JACKSON09-16-2019DISCHARGE (KAF)393389101
59ALPW4SNAKE-NEAR ALPINE09-16-2019DISCHARGE (KAF)483484100
60PLDI1SF SNAKE-PALISADES DAM09-16-2019INFLOW (KAF)758750101
61HEII1SNAKE-NEAR HEISE09-16-2019DISCHARGE (KAF)1433790181
62RIDI1WILLOW CREEK-RIRIE DAM09-16-2019INFLOW (KAF)98119
63SIFI1SNAKE-AB EAGLE ROCK NR IDAHO FALLS09-16-2019DISCHARGE (KAF)1621869187
64SHYI1SNAKE-NEAR SHELLEY09-16-2019DISCHARGE (KAF)1613803201
65SNAI1SNAKE-AT BLACKFOOT09-16-2019DISCHARGE (KAF)1440666216
66BFTI1SNAKE-NEAR BLACKFOOT09-16-2019DISCHARGE (KAF)1469714206
67PIHI1PORTNEUF-AT POCATELLO09-16-2019DISCHARGE (KAF)5752109
68AFRI1SNAKE-AMERICAN FALLS RESERVOIR09-16-2019INFLOW (KAF)21431399153
69MILI1SNAKE-AT MILNER09-16-2019DISCHARGE (KAF)M384M
70HOTI1BRUNEAU-NEAR HOT SPRINGS09-16-2019DISCHARGE (KAF)3424141
71SWAI1SNAKE-BELOW SWAN FALLS09-16-2019DISCHARGE (KAF)1978243981
72HWRI1BIG LOST-AT HOWELL RANCH NEAR CHILLY09-16-2019DISCHARGE (KAF)2825112
73MACI1BIG LOST-MACKAY RESERVOIR NEAR MACKAY09-16-2019INFLOW (KAF)479501
74HALI1BIG WOOD-AT HAILEY09-16-2019DISCHARGE (KAF)4443102
75MAGI1BIG WOOD-MAGIC DAM09-16-2019INFLOW (KAF)3027109
76LWRI1LITTLE WOOD-LITTLE WOOD DAM09-16-2019INFLOW (KAF)2015131
77OWYO3OWYHEE-OWYHEE DAM09-16-2019INFLOW (KAF)7765119
78ARAI1SF BOISE-ANDERSON RANCH DAM09-16-2019INFLOW (KAF)8571120
79LUCI1BOISE-LUCKY PEAK DAM09-16-2019INFLOW (KAF)82MM
80BIGI1BOISE-AT GLENWOOD BRIDGE09-16-2019DISCHARGE (KAF)7155129
81PARI1BOISE-NEAR PARMA09-16-2019DISCHARGE (KAF)21322196
82WRMO3MALHEUR-WARM SPRINGS DAM09-16-2019INFLOW (KAF)1512127
83BERO3MALHEUR-AGENCY VALLEY DAM09-16-2019INFLOW (KAF)1212101
84BULO3BULLY CREEK-BULLY CREEK DAM09-16-2019INFLOW (KAF)21164
85CSDI1NF PAYETTE-CASCADE DAM09-16-2019INFLOW (KAF)768986
86DEDI1DEADWOOD-NEAR LOWMAN09-16-2019INFLOW (KAF)1918102
87EMMI1PAYETTE-NEAR EMMETT09-16-2019DISCHARGE (KAF)27735578
88WSRI1WEISER-NEAR WEISER09-16-2019DISCHARGE (KAF)475487
89WEII1SNAKE-AT WEISER09-16-2019DISCHARGE (KAF)2909349083
90BRNI1SNAKE-BROWNLEE DAM09-16-2019INFLOW (KAF)3091355387
91WHBI1SALMON-AT WHITEBIRD09-16-2019DISCHARGE (KAF)1048110994
92TRYO3GRANDE RONDE-TROY09-16-2019DISCHARGE (KAF)18223976
93ANAW1SNAKE-NEAR ANATONE09-16-2019DISCHARGE (KAF)4203527680
94ORFI1CLEARWATER-AT OROFINO09-16-2019DISCHARGE (KAF)48455987
95DWRI1NF CLEARWATER-DWORSHAK DAM09-16-2019INFLOW (KAF)25941962
96SPDI1CLEARWATER-AT SPALDING09-16-2019DISCHARGE (KAF)1013135075
97LGDW1SNAKE-LOWER GRANITE DAM09-16-2019INFLOW (KAF)5216678677
98LGSW1SNAKE-LITTLE GOOSE DAM09-16-2019INFLOW (KAF)5216682076
99LMNW1SNAKE-LOWER MONUMENTAL DAM09-16-2019INFLOW (KAF)5242684277
100IHDW1SNAKE-ICE HARBOR DAM09-16-2019INFLOW (KAF)5238677677
101TCHW1WALLA WALLA-NEAR TOUCHET09-16-2019DISCHARGE (KAF)7263114
102MCDW1COLUMBIA-MCNARY DAM09-16-2019INFLOW (KAF)242922751788
103GIBO3UMATILLA-NEAR GIBBON09-16-2019DISCHARGE (KAF)202387
104PDTO3UMATILLA-AT PENDLETON09-16-2019DISCHARGE (KAF)424496
105MYKO3MCKAY CREEK-NEAR PILOT ROCK09-16-2019DISCHARGE (KAF)118132
106UMAO3UMATILLA-NEAR UMATILLA09-16-2019DISCHARGE (KAF)9444215
107MONO3NF JOHN DAY-AT MONUMENT09-16-2019DISCHARGE (KAF)576193
108SERO3JOHN DAY-AT SERVICE CK09-16-2019DISCHARGE (KAF)11812098
109JDAO3COLUMBIA-JOHN DAY DAM09-16-2019INFLOW (KAF)251432817189
110MODO3DESCHUTES-AT MOODY NR BIGGS09-16-2019DISCHARGE (KAF)12641255101
111TDAO3COLUMBIA-THE DALLES DAM09-16-2019INFLOW (KAF)258943070584
112PITW1KLICKITAT-NEAR PITT09-16-2019DISCHARGE (KAF)20221992
113HODO3HOOD-NEAR TUCKER BRIDGE09-16-2019DISCHARGE (KAF)186170109
114UNDW1WHITE SALMON-NEAR UNDERWOOD09-16-2019DISCHARGE (KAF)18019095
115BONO3COLUMBIA-BONNEVILLE DAM09-16-2019INFLOW (KAF)264453229082